Total_Precipitation_Accumulation
0.27 0.64 1.29 2.04 3.23 3.40 2.25 1.26 1.01 0.92 0.83 0.77 0.67 0.70 0.99 1.47 2.16 3.29 3.25 2.73 2.57 2.83 3.23 3.80 3.87 3.53 3.38 3.15 3.21 3.32 3.22 3.28 3.06 2.87 2.69 2.61 2.40 2.07 1.85 1.80 1.83 1.88 1.78 1.58 1.66 1.73 1.64 1.76 1.94
0.55 1.02 1.57 2.50 3.28 2.59 1.75 1.11 0.94 0.76 0.66 0.66 0.73 0.85 0.92 1.20 1.30 2.03 2.84 2.75 2.31 2.37 2.88 3.11 3.39 3.23 2.98 2.76 2.88 2.92 2.99 2.96 2.86 2.61 2.42 2.36 2.29 2.04 1.76 1.68 1.69 1.66 1.58 1.54 1.63 1.71 1.72 1.72 1.77
0.95 1.24 1.89 2.76 2.38 1.55 1.18 0.88 0.74 0.71 0.64 0.72 0.83 0.91 1.07 1.46 1.55 2.18 2.67 2.31 2.13 2.20 2.59 2.96 2.98 2.78 2.58 2.46 2.56 2.64 2.68 2.63 2.67 2.51 2.36 2.26 2.13 1.92 1.68 1.57 1.60 1.57 1.56 1.51 1.59 1.78 1.89 1.86 1.79
1.15 1.58 1.88 2.14 1.59 0.80 0.53 0.54 0.55 0.77 0.90 1.00 1.05 1.21 1.37 1.46 1.55 1.94 2.10 1.83 1.77 1.81 2.04 2.48 2.60 2.48 2.47 2.38 2.31 2.42 2.41 2.47 2.56 2.44 2.32 2.39 2.28 2.04 1.75 1.56 1.53 1.57 1.59 1.58 1.70 1.85 1.95 1.85 1.70
1.17 1.81 2.17 1.62 1.01 0.60 0.43 0.40 0.56 0.83 1.03 1.10 1.21 1.62 2.09 1.90 1.50 1.64 1.68 1.63 1.52 1.61 1.77 2.11 2.41 2.40 2.37 2.17 2.05 2.24 2.37 2.36 2.36 2.30 2.13 2.23 2.17 2.00 1.78 1.58 1.52 1.51 1.55 1.62 1.74 1.82 1.86 1.73 1.69
1.50 1.92 1.80 1.22 0.72 0.46 0.45 0.43 0.53 0.75 0.97 1.10 1.44 1.85 2.49 2.38 1.95 1.83 1.66 1.72 1.60 1.47 1.63 1.98 2.29 2.22 2.11 2.03 2.09 2.31 2.39 2.27 2.19 2.18 2.07 2.04 2.09 2.03 1.91 1.74 1.68 1.58 1.57 1.68 1.77 1.79 1.72 1.68 1.73
1.62 1.65 1.24 0.89 0.64 0.46 0.43 0.41 0.50 0.74 0.96 1.21 1.48 1.82 2.25 2.51 2.29 1.99 1.77 1.84 1.98 1.76 1.81 1.88 1.93 1.99 2.08 2.28 2.43 2.61 2.54 2.23 2.12 2.15 2.07 1.95 1.95 1.97 1.90 1.89 1.87 1.81 1.76 1.85 1.95 1.84 1.76 1.74 1.83
1.04 1.15 0.85 0.60 0.66 0.56 0.37 0.37 0.49 0.74 0.97 1.20 1.43 1.71 2.21 2.16 2.08 2.11 2.32 2.53 2.64 2.48 2.30 2.06 1.97 2.16 2.15 2.27 2.54 2.67 2.41 2.13 2.06 2.14 2.16 2.15 2.24 2.31 2.25 2.05 2.09 2.24 2.30 2.28 2.27 2.12 2.04 1.97 2.07
0.67 1.01 0.83 0.52 0.51 0.49 0.34 0.38 0.50 0.56 0.77 1.10 1.29 1.42 1.53 1.64 1.98 2.36 2.81 3.01 2.87 2.93 2.77 2.54 2.29 2.13 2.26 2.34 2.49 2.87 2.67 2.42 2.46 2.69 2.73 2.87 3.29 3.07 3.01 2.50 2.67 2.93 3.01 2.97 2.89 2.80 2.65 2.35 2.20
0.61 0.80 0.51 0.29 0.22 0.24 0.27 0.35 0.48 0.65 1.13 1.80 1.70 1.38 1.28 1.63 2.05 2.31 2.72 3.11 2.78 2.94 2.68 2.55 2.45 2.12 2.11 2.25 2.83 3.51 3.14 2.96 2.99 3.32 3.27 3.64 3.67 3.53 2.82 3.01 3.57 3.75 3.95 3.99 3.85 3.77 3.30 2.73 2.40
0.41 0.47 0.29 0.16 0.13 0.11 0.16 0.27 0.38 0.69 1.27 1.97 2.13 1.69 1.57 1.76 2.15 2.22 2.57 2.94 2.86 2.72 2.63 2.38 2.69 2.42 2.49 2.87 3.02 3.36 3.50 3.43 3.41 3.45 3.43 3.71 3.36 3.15 3.23 3.73 4.09 4.31 4.37 4.43 4.30 4.11 3.44 3.38 3.53
0.25 0.21 0.15 0.11 0.10 0.10 0.20 0.31 0.46 0.63 1.15 1.43 1.39 1.30 1.45 1.74 2.11 2.35 2.57 3.02 2.90 2.58 2.59 2.67 2.81 2.91 3.11 3.15 3.08 2.99 2.85 2.88 3.06 3.23 3.19 3.39 3.57 3.66 3.64 3.89 4.06 4.27 4.62 5.02 4.75 4.69 4.27 4.12 3.85
0.16 0.18 0.16 0.15 0.13 0.15 0.19 0.30 0.48 0.69 0.93 0.93 0.87 1.05 1.48 1.81 2.30 2.73 3.26 3.63 3.52 3.26 3.09 3.18 3.41 3.46 3.42 3.48 3.24 2.77 2.63 2.53 2.57 2.76 2.92 2.90 3.28 3.58 3.60 3.55 3.75 3.67 3.84 4.26 4.83 4.66 4.80 4.65 4.17
0.13 0.14 0.16 0.18 0.15 0.20 0.22 0.27 0.49 0.82 0.91 0.89 1.01 1.26 1.64 2.09 2.56 2.93 3.81 4.33 4.42 4.25 4.04 3.89 4.01 3.70 3.54 3.50 3.27 3.02 2.64 2.67 2.59 2.56 2.56 2.76 3.01 3.31 3.29 3.33 3.68 3.66 3.54 3.71 4.16 4.30 4.75 4.68 4.24
0.17 0.22 0.25 0.24 0.19 0.21 0.25 0.54 0.74 0.84 1.07 1.05 1.22 1.42 1.74 2.31 2.83 3.42 4.07 4.89 5.19 5.36 5.00 4.45 4.21 3.94 3.80 3.64 3.29 2.91 2.70 2.55 2.73 2.72 2.58 2.66 2.77 3.03 3.05 3.20 3.26 3.28 3.17 3.32 3.49 3.69 3.99 3.90 3.71
0.25 0.42 0.55 0.34 0.22 0.22 0.35 0.90 0.98 0.80 1.12 1.47 1.41 1.67 2.08 2.60 3.11 3.88 4.61 5.46 5.96 6.12 5.60 4.86 4.11 4.24 4.20 4.02 3.43 2.97 2.80 2.74 2.71 2.59 2.44 2.37 2.54 2.55 2.76 2.81 2.74 2.75 2.60 2.77 3.20 3.23 3.44 3.63 3.62
0.30 0.42 0.48 0.40 0.24 0.27 0.40 0.88 1.03 0.82 1.04 1.35 1.56 1.82 2.24 2.65 3.02 3.66 4.29 5.12 5.75 6.25 6.11 5.47 5.32 5.13 4.54 3.90 3.37 3.02 2.82 2.81 2.56 2.50 2.46 2.46 2.45 2.52 2.72 2.89 2.84 2.41 2.41 2.57 2.39 2.86 3.12 3.31 3.33
0.34 0.29 0.37 0.46 0.33 0.34 0.48 0.73 1.01 1.02 1.25 1.59 1.71 1.82 2.07 2.33 2.66 3.12 3.69 4.16 4.76 5.26 5.19 5.11 5.22 4.82 4.25 3.67 3.27 3.09 2.87 2.63 2.47 2.46 2.57 2.58 2.53 2.49 2.84 2.68 2.46 2.22 2.60 2.90 2.95 3.30 3.22 3.04 3.05
0.22 0.24 0.33 0.39 0.33 0.43 0.59 0.76 1.03 1.20 1.47 1.74 1.72 1.68 1.73 2.01 2.33 2.53 2.91 3.33 3.61 3.78 3.89 4.22 4.39 4.16 3.73 3.36 2.93 2.84 2.84 2.61 2.40 2.33 2.20 2.38 2.31 2.55 2.97 2.69 2.99 2.66 2.73 2.90 2.88 3.10 3.06 2.74 2.69
0.18 0.21 0.32 0.39 0.33 0.40 0.60 0.95 1.16 1.24 1.33 1.47 1.53 1.47 1.58 1.91 2.00 2.06 2.20 2.54 2.77 3.00 3.27 3.62 3.87 3.74 3.17 2.97 2.83 2.77 2.77 2.59 2.63 2.54 2.52 2.29 2.26 2.51 2.60 3.01 2.76 2.82 2.99 2.97 2.99 3.15 3.16 2.85 2.83
0.17 0.18 0.24 0.33 0.38 0.51 0.66 1.33 1.44 1.24 1.19 1.11 1.25 1.33 1.34 1.57 1.80 1.88 1.86 1.95 2.22 2.80 3.01 2.92 3.19 3.38 3.13 3.07 3.01 2.94 2.94 2.74 2.86 2.85 2.76 2.39 2.20 2.21 2.43 2.62 2.64 2.88 2.66 3.01 3.22 3.18 3.30 3.34 3.15
0.18 0.15 0.16 0.21 0.31 0.63 0.74 1.46 1.58 1.35 1.37 1.12 1.06 1.13 1.13 1.15 1.43 1.63 1.53 1.56 1.78 2.08 2.38 2.74 3.07 3.16 3.09 3.01 2.83 2.76 2.57 2.54 2.56 2.59 2.61 2.44 2.28 2.17 2.26 2.38 2.72 2.91 2.63 3.21 2.78 2.91 3.19 3.39 3.21
0.11 0.11 0.13 0.21 0.34 0.59 0.74 1.19 1.48 1.35 1.60 1.24 0.88 0.80 0.83 0.84 0.94 1.09 1.23 1.37 1.43 1.57 1.97 2.53 3.00 3.22 3.12 2.81 2.71 2.86 2.69 2.62 2.61 2.52 2.72 2.54 2.36 2.17 2.05 2.33 2.63 2.77 2.66 2.84 2.91 3.21 3.06 3.02 3.04
0.07 0.11 0.23 0.39 0.57 1.00 0.96 1.04 1.42 1.22 1.06 0.84 0.68 0.62 0.67 0.74 0.73 0.80 0.92 1.19 1.39 1.43 1.66 2.11 2.56 2.85 2.92 2.73 2.64 2.73 2.83 2.84 2.71 2.57 2.55 2.36 2.30 2.22 2.12 2.32 2.63 2.60 2.67 2.87 2.84 3.00 2.99 3.06 3.14
0.06 0.12 0.44 0.74 0.98 1.12 0.75 0.96 1.34 0.92 0.74 0.68 0.65 0.65 0.61 0.57 0.69 0.83 0.97 1.11 1.22 1.33 1.51 1.76 1.97 2.18 2.42 2.60 2.67 2.60 2.77 2.86 2.63 2.39 2.44 2.39 2.22 2.21 2.28 2.44 2.72 2.63 2.71 2.82 3.07 3.15 3.08 3.06 3.08
0.07 0.10 0.29 0.48 0.60 0.71 0.74 1.41 1.32 0.75 0.62 0.58 0.58 0.58 0.59 0.70 0.76 0.87 1.09 1.19 1.16 1.22 1.46 1.56 1.71 1.96 2.28 2.47 2.53 2.48 2.43 2.33 2.26 2.41 2.32 2.32 2.28 2.21 2.15 2.34 2.40 2.38 2.47 2.53 3.08 2.90 2.87 2.99 2.91
0.08 0.10 0.15 0.23 0.30 0.56 0.91 1.09 0.85 0.56 0.55 0.57 0.55 0.58 0.63 0.74 0.88 0.96 1.14 1.18 1.10 1.14 1.34 1.47 1.64 1.82 2.00 2.32 2.51 2.40 2.34 2.16 2.11 2.17 2.15 2.10 2.24 2.19 2.16 2.19 2.28 2.36 2.51 2.66 2.86 2.74 2.83 3.05 2.90
0.09 0.10 0.15 0.18 0.27 0.46 0.78 1.03 1.08 0.82 0.69 0.60 0.60 0.66 0.70 0.81 0.99 1.11 1.12 1.14 1.10 1.16 1.39 1.47 1.61 1.69 1.75 1.91 2.00 1.91 2.09 2.09 2.19 2.18 2.08 1.98 1.98 2.02 2.10 2.20 2.24 2.33 2.44 2.71 2.89 2.83 2.93 3.01 2.87
0.11 0.09 0.10 0.13 0.16 0.29 0.63 0.85 0.81 0.77 0.75 0.62 0.61 0.69 0.81 0.83 0.98 1.08 1.04 1.02 0.99 1.05 1.20 1.24 1.41 1.57 1.64 1.78 1.84 1.92 2.02 2.05 2.08 2.12 2.09 2.09 2.10 2.12 2.11 2.22 2.28 2.29 2.30 2.51 2.72 2.61 2.85 2.99 3.03
0.13 0.15 0.15 0.14 0.13 0.20 0.34 0.51 0.50 0.58 0.68 0.66 0.70 0.82 0.92 0.78 0.82 1.03 1.09 1.09 0.88 0.93 1.03 1.15 1.38 1.57 1.65 1.85 1.97 2.00 2.11 2.15 2.08 2.12 2.31 2.31 2.27 2.25 2.25 2.34 2.44 2.36 2.35 2.53 2.54 2.38 2.48 2.70 2.92